Location: Baker Cemetery
(37.4500°N, 89.8218°W)
Time: 22:21:59
(UTC+00:00)

Daily predictions for brighter satellites

Satellite Brightness Start Highest point End
(mag) Time Altitude Azimuth Time Altitude Azimuth Time Altitude Azimuth
Milstar 3 Cent rocket 4.3 12:03:08 10° WSW 12:07:13 20° SSW 12:12:57 10° SSE
Cosmos 1933 4.5 12:06:18 10° NW 12:09:24 23° W 12:12:31 10° SW
ERS-2 2.0 12:07:08 10° N 12:09:53 38° WNW 12:12:37 10° SW
SAR-Lupe-2 3.5 12:07:32 10° N 12:11:05 63° WNW 12:14:36 10° SSW
CZ-4C R/B 4.4 12:05:03 10° NNW 12:11:34 33° NE 12:19:04 10° ESE
PSLV R/B 4.1 12:09:12 10° N 12:13:05 35° WNW 12:16:57 10° SW
COSMO-SKYMED 1 3.8 12:10:58 10° SW 12:14:19 22° W 12:17:41 10° NW
Cosmos 1862 4.3 12:11:26 10° SW 12:14:34 24° WNW 12:17:44 10° NNW
Cosmos 2151 3.2 12:10:35 10° SSW 12:14:36 45° W 12:18:39 10° N
SeaSat 1 4.2 12:11:56 10° ESE 12:16:04 28° NE 12:20:12 10° N
USA 215 3.5 12:14:49 10° NE 12:21:02 49° NW 12:27:14 10° WSW
Meteor 1-31 Rocket 2.8 12:18:41 10° NNE 12:22:29 81° ESE 12:26:17 10° S
GENESIS II 4.3 12:20:35 10° SW 12:24:19 52° WNW 12:28:07 10° NNE
BlueWalker 3 3.7 12:26:05 10° W 12:28:43 18° SW 12:31:20 10° S
Cosmos 2279 Rocket 4.0 22:55:11 10° N 23:01:27 83° E 23:07:39 10° S
NOSS 3-4 (A) 4.2 22:54:53 10° NNW 23:02:10 86° WSW 23:10:27 10° SSE
NOSS 3-4 (C) 4.1 22:55:02 10° NNW 23:02:15 86° WSW 23:10:26 10° SSE
Cosmos 44 3.4 22:57:58 10° NNW 23:03:18 72° ENE 23:08:20 10° SE
CORIOLIS 4.4 22:58:46 10° SE 23:03:50 45° ENE 23:08:55 10° N
USA 234 3.4 23:01:20 10° NE 23:07:51 68° SE 23:14:20 10° SW
SJ-7 4.3 23:04:48 10° SSE 23:08:45 74° ENE 23:12:46 10° N
Cosmos 2227 4.3 23:04:31 10° S 23:10:11 62° ESE 23:15:51 10° NNE
Cosmos 1140 Rocket 4.1 23:05:58 10° N 23:10:37 33° ENE 23:15:13 10° SE
Cosmos 1076 Rocket 3.6 23:06:56 10° N 23:11:19 87° W 23:15:38 10° S
Cosmos 1602 3.8 23:10:32 10° N 23:14:10 50° E 23:17:48 10° SSE
Nadezhda 4 Rocket 4.0 23:09:36 10° S 23:15:40 64° E 23:21:43 10° NNE
Cosmos 1782 3.8 23:15:49 10° SSE 23:19:03 26° E 23:22:19 10° NNE
Cosmos 1500 3.7 23:20:16 10° NNW 23:23:44 58° W 23:27:12 10° S
DMSP B5D2-2 4.5 23:19:54 10° N 23:25:05 68° WNW 23:30:15 10° SSW
Helios 1B rocket 3.5 23:22:33 10° S 23:26:20 47° W 23:30:09 10° NNW
Cosmos 1812 Rocket 3.6 23:22:48 10° S 23:27:02 59° E 23:31:20 10° NNE
SL-8 R/B 4.1 23:23:39 10° NW 23:28:12 43° NNE 23:32:47 10° E
Cosmos 1603 4.2 23:23:14 10° N 23:28:25 35° ENE 23:33:32 10° SE
CZ-4B R/B 3.5 23:25:45 10° SSE 23:29:18 66° ENE 23:32:53 10° N
Helios 1A 3.2 23:26:26 10° NNE 23:30:29 49° E 23:34:29 10° S
ISS -3.8 23:28:45 10° NW 23:32:06 68° NE 23:35:25 10° ESE
CZ-2C R/B 2.9 23:33:09 10° WSW 23:34:34 14° SSW 23:35:58 10° SSE
H-2A R/B 2.7 23:33:03 10° WSW 23:35:08 25° S 23:39:20 10° ESE
CZ-4B R/B 3.8 23:30:41 10° SE 23:35:28 43° ENE 23:40:08 10° N
SMAP 3.2 23:31:49 10° S 23:36:28 83° WSW 23:41:08 10° NNW
SL-16 R/B 4.1 23:36:12 10° NW 23:41:12 33° WSW 23:46:12 10° SSW
NOAA 6 4.4 23:40:42 10° SE 23:45:28 41° ENE 23:50:17 10° N
Cosmos 1943 3.1 23:46:29 10° NNW 23:52:08 82° ENE 23:57:48 10° SSE
Cosmos 1627 Rocket 4.5 23:46:46 10° S 23:52:56 65° E 23:59:13 10° NNE
Cosmos-2242 4.1 23:50:44 10° SSW 23:54:54 47° W 23:59:06 10° N
